Regional Weather Roundup
Issued by NWS

Home | Current Version | Previous Version | Text Only | Print | Product List | Glossary On
Versions: 1 2 3 4 5 6 7 8 9 10 11 12 13 14 15 16 17 18 19 20 21 22 23 24 25 26 27 28 29 30 31 32 33 34 35 36 37 38 39 40 41 42 43 44 45 46 47 48
000
ASUS44 KBMX 300810
RWRAL

ALABAMA REGIONAL WEATHER ROUNDUP
NATIONAL WEATHER SERVICE BIRMINGHAM AL
300 AM CDT THU JUL 30 2015

NOTE: "FAIR" INDICATES FEW OR NO CLOUDS BELOW 12,000 FEET
WITH NO SIGNIFICANT WEATHER AND/OR OBSTRUCTIONS TO VISIBILITY.

THE REMARK "TC" DENOTES TEMPERATURE IN DEGREES CELSIUS.

ALZ001>011-014-016>018-020-300900-
NORTH ALABAMA

CITY           SKY/WX    TMP DP  RH WIND       PRES   REMARKS
MUSCLE SHOALS  CLEAR     76  73  91 W3        30.01F
HUNTSVILLE     CLEAR     78  74  87 CALM      29.99F
DECATUR        CLEAR     77  75  93 NW5       30.00S
HALEYVILLE     FAIR      73  73 100 CALM      30.05F FOG
GADSDEN        CLEAR     75  70  83 CALM      29.96F
$$

ALZ012-013-022-023-030>036-040>044-300900-
WEST CENTRAL ALABAMA

CITY           SKY/WX    TMP DP  RH WIND       PRES   REMARKS
TUSCALOOSA     CLEAR     75  73  93 W3        29.98F
$$

ALZ015-024>027-033>036-040>044-300900-
CENTRAL ALABAMA

CITY           SKY/WX    TMP DP  RH WIND       PRES   REMARKS
BIRMINGHAM     PTCLDY    76  75  97 E3        30.00F
MONTGOMERY     CLOUDY    79  75  87 CALM      29.96S
SHELBY CO ARPT CLEAR     76  74  93 NW5       29.98F
MAXWELL AFB    MOCLDY    77  76  95 SW1       29.95S
GREENVILLE     NOT AVBL
$$

ALZ019-021-028-029-037-038-045>048-300900-
EAST CENTRAL ALABAMA

CITY           SKY/WX    TMP DP  RH WIND       PRES   REMARKS
ANNISTON       CLEAR     77  74  90 CALM      29.97F
ALEXANDER CITY PTCLDY    74  71  89 CALM      29.96F FOG
AUBURN           N/A    N/A N/A N/A MISG        N/A
$$

ALZ051>064-300900-
SOUTHWEST ALABAMA

CITY           SKY/WX    TMP DP  RH WIND       PRES   REMARKS
MOBILE         PTCLDY    76  75  97 NW3       29.97F
BROOKLEY FIELD PTCLDY    80  74  81 NW7       29.97F
EVERGREEN      MOCLDY    76  74  93 CALM      29.96F
$$

ALZ049-050-065>069-300900-
SOUTHEAST ALABAMA

CITY           SKY/WX    TMP DP  RH WIND       PRES   REMARKS
DOTHAN         CLOUDY    77  76  96 W3        29.97F
OZARK          MOCLDY    76  76  99 SW3       29.93F
TROY           MOCLDY    77  76  96 CALM      29.95F FOG
EUFAULA        FAIR      78  75  90 CALM      29.92F
$$


USA.gov is the U.S. government's official web portal to all federal, state and local government web resources and services.